This is the latest recevied weather packets stored in our database for station/object SP9TKN-1. If no packets are shown the sender has not sent any weather packets the latest 10 day(s).
| Time | Temp. | Humidity | Pressure | Rain* | Wind** | Luminosity | Snow |
|---|---|---|---|---|---|---|---|
| 1778103977 | 18.89° C | 45% | 1007.3 hPa | - | - | - | - |
| 1778103077 | 18.89° C | 45% | 1007.3 hPa | - | - | - | - |
| 1778102177 | 19.44° C | 44% | 1007.3 hPa | - | - | - | - |
| 1778101277 | 19.44° C | 44% | 1007.3 hPa | - | - | - | - |
| 1778100377 | 19.44° C | 44% | 1007.1 hPa | - | - | - | - |
| 1778099477 | 19.44° C | 44% | 1007 hPa | - | - | - | - |
| 1778098577 | 20° C | 44% | 1006.9 hPa | - | - | - | - |
| 1778097677 | 19.44° C | 43% | 1006.8 hPa | - | - | - | - |
| 1778096777 | 19.44° C | 43% | 1007 hPa | - | - | - | - |
| 1778095877 | 19.44° C | 43% | 1006.9 hPa | - | - | - | - |
| 1778094977 | 20° C | 42% | 1006.8 hPa | - | - | - | - |
| 1778094077 | 20° C | 42% | 1006.8 hPa | - | - | - | - |
| 1778093177 | 20.56° C | 41% | 1006.6 hPa | - | - | - | - |
| 1778092277 | 20.56° C | 39% | 1006.4 hPa | - | - | - | - |
| 1778091377 | 20.56° C | 38% | 1006.2 hPa | - | - | - | - |
| 1778090477 | 21.11° C | 38% | 1006.3 hPa | - | - | - | - |
| 1778089577 | 21.67° C | 38% | 1006.4 hPa | - | - | - | - |
| 1778088677 | 21.67° C | 39% | 1006.2 hPa | - | - | - | - |
| 1778087778 | 22.22° C | 38% | 1006.2 hPa | - | - | - | - |
| 1778086877 | 22.22° C | 37% | 1006.2 hPa | - | - | - | - |
| 1778085977 | 22.22° C | 37% | 1006.3 hPa | - | - | - | - |
| 1778085079 | 22.22° C | 37% | 1006.4 hPa | - | - | - | - |
| 1778084176 | 22.22° C | 37% | 1006.5 hPa | - | - | - | - |
| 1778083276 | 22.22° C | 35% | 1006.6 hPa | - | - | - | - |
| 1778082376 | 22.78° C | 34% | 1006.7 hPa | - | - | - | - |
* Rain since midnight (hover to see other rain measurements)
** Current wind speed in m/s (hover to see current wind gust speed)